Weather History for Grand Rapids, MN

Change the Weather History Date:

Sunday, April 14, 2013

  Actual Average Record
Temperature  
Mean Temperature 26 °F -  
Max Temperature 39 °F 52 °F 80 °F (2003)
Min Temperature 14 °F 30 °F 1 °F (1950)
Degree Days  
Heating Degree Days 38    
Moisture  
Dew Point 20 °F    
Average Humidity 75    
Maximum Humidity 93    
Minimum Humidity 42    
Precipitation  
Precipitation 0.08 in - - ()
Sea Level Pressure  
Sea Level Pressure 29.81 in    
Wind  
Wind Speed 5 mph (East)    
Max Wind Speed 20 mph    
Max Gust Speed 31 mph    
Visibility 7 miles    
Events      
Averages and records for this station are not official NWS values.
T = Trace of Precipitation, MM = Missing Value Source: NWS Daily Summary

Daily Weather History Graph

Daily Weather History Graph

Search for Another Location

Airport:

Trip Planner

Search our weather history database for the weather conditions in past years. The results will help you decide how hot, cold, wet, or windy it might be!

Date:

Astronomy

Apr. 14, 2013 Rise Set
Actual Time 6:27 AM CDT 8:02 PM CDT
Civil Twilight 5:55 AM CDT 8:34 PM CDT
Nautical Twilight 5:16 AM CDT 9:13 PM CDT
Astronomical Twilight 4:34 AM CDT 9:55 PM CDT
Moon 8:52 AM CDT (4/14) No Moon Set
Length of Visible Light 14h 38m
Length of Day
13h 34m
Waxing Crescent, 17% of the Moon is Illuminated
Apr 14
Waxing Crescent
Apr 18
First Quarter
Apr 25
Full
May 2
Last Quarter
May 9
New

Hourly Weather History & Observations

Time (CDT) Temp. Windchill Dew Point Humidity Pressure Visibility Wind Dir Wind Speed Gust Speed Precip Events Conditions
12:15 AM 19.4 °F - 15.8 °F 86% 29.95 in 10.0 mi Calm Calm - N/A   Clear
12:35 AM 19.4 °F 14.3 °F 15.8 °F 86% 29.96 in 10.0 mi South 3.5 mph - N/A   Clear
12:55 AM 19.4 °F - 15.8 °F 86% 29.95 in 10.0 mi Calm Calm - N/A   Clear
1:15 AM 19.4 °F - 15.8 °F 86% 29.96 in 10.0 mi Calm Calm - N/A   Clear
1:35 AM 17.6 °F - 15.8 °F 93% 29.95 in 10.0 mi Calm Calm - N/A   Clear
1:55 AM 17.6 °F - 15.8 °F 93% 29.95 in 10.0 mi Calm Calm - N/A   Clear
2:15 AM 15.8 °F 10.2 °F 14.0 °F 93% 29.95 in 10.0 mi South 3.5 mph - N/A   Clear
2:35 AM 15.8 °F - 12.2 °F 86% 29.94 in 10.0 mi Calm Calm - N/A   Clear
2:55 AM 15.8 °F - 12.2 °F 86% 29.94 in 10.0 mi Calm Calm - N/A   Clear
3:15 AM 15.8 °F - 12.2 °F 86% 29.93 in 10.0 mi Calm Calm - N/A   Clear
3:35 AM 15.8 °F - 12.2 °F 86% 29.93 in 10.0 mi Calm Calm - N/A   Clear
3:55 AM 15.8 °F - 12.2 °F 86% 29.91 in 10.0 mi Calm Calm - N/A   Clear
4:15 AM 15.8 °F - 10.4 °F 79% 29.91 in 10.0 mi Calm Calm - N/A   Clear
4:35 AM 15.8 °F - 14.0 °F 93% 29.92 in 10.0 mi Calm Calm - N/A   Clear
4:55 AM 15.8 °F - 12.2 °F 86% 29.92 in 10.0 mi Calm Calm - N/A   Clear
5:15 AM 14.0 °F - 10.4 °F 86% 29.94 in 10.0 mi Calm Calm - N/A   Clear
5:35 AM 15.8 °F 10.2 °F 12.2 °F 86% 29.93 in 10.0 mi East 3.5 mph - N/A   Clear
5:55 AM 14.0 °F - 8.6 °F 79% 29.93 in 10.0 mi Calm Calm - N/A   Clear
6:15 AM 17.6 °F 12.3 °F 14.0 °F 86% 29.93 in 10.0 mi ESE 3.5 mph - N/A   Clear
6:35 AM 17.6 °F - 15.8 °F 93% 29.94 in 10.0 mi Calm Calm - N/A   Clear
6:55 AM 15.8 °F - 12.2 °F 86% 29.94 in 10.0 mi Calm Calm - N/A   Clear
7:15 AM 19.4 °F 14.3 °F 15.8 °F 86% 29.93 in 10.0 mi ENE 3.5 mph - N/A   Clear
7:35 AM 19.4 °F 12.8 °F 17.6 °F 93% 29.92 in 10.0 mi East 4.6 mph - N/A   Clear
7:55 AM 23.0 °F 18.4 °F 17.6 °F 80% 29.93 in 10.0 mi ESE 3.5 mph - N/A   Clear
8:15 AM 24.8 °F 19.1 °F 17.6 °F 74% 29.91 in 10.0 mi East 4.6 mph - N/A   Clear
8:35 AM 26.6 °F 19.1 °F 19.4 °F 74% 29.92 in 10.0 mi ESE 6.9 mph - N/A   Clear
8:55 AM 26.6 °F 21.2 °F 19.4 °F 74% 29.91 in 10.0 mi East 4.6 mph - N/A   Clear
9:15 AM 28.4 °F 19.7 °F 19.4 °F 69% 29.91 in 10.0 mi ESE 9.2 mph - N/A   Clear
9:35 AM 30.2 °F 21.9 °F 19.4 °F 64% 29.88 in 10.0 mi East 9.2 mph 17.3 mph N/A   Clear
9:55 AM 32.0 °F 24.2 °F 19.4 °F 60% 29.88 in 10.0 mi ESE 9.2 mph 18.4 mph N/A   Clear
10:15 AM 32.0 °F 25.6 °F 19.4 °F 60% 29.88 in 10.0 mi East 6.9 mph 17.3 mph N/A   Clear
10:35 AM 33.8 °F 25.8 °F 19.4 °F 56% 29.86 in 10.0 mi ESE 10.4 mph 16.1 mph N/A   Clear
10:55 AM 35.6 °F 27.5 °F 19.4 °F 52% 29.85 in 10.0 mi ESE 11.5 mph 21.9 mph N/A   Clear
11:15 AM 35.6 °F 28.6 °F 19.4 °F 52% 29.84 in 10.0 mi ESE 9.2 mph 21.9 mph N/A   Clear
11:35 AM 35.6 °F 27.1 °F 17.6 °F 48% 29.83 in 10.0 mi East 12.7 mph 20.7 mph N/A   Partly Cloudy
11:55 AM 37.4 °F 30.8 °F 19.4 °F 48% 29.83 in 10.0 mi East 9.2 mph 17.3 mph N/A   Partly Cloudy
12:15 PM 37.4 °F 30.3 °F 19.4 °F 48% 29.81 in 10.0 mi East 10.4 mph 20.7 mph N/A   Clear
12:35 PM 37.4 °F 29.3 °F 19.4 °F 48% 29.81 in 10.0 mi ESE 12.7 mph 18.4 mph N/A   Clear
12:55 PM 39.2 °F 33.6 °F 19.4 °F 45% 29.81 in 10.0 mi ESE 8.1 mph 18.4 mph N/A   Clear
1:15 PM 39.2 °F 31.6 °F 19.4 °F 45% 29.81 in 10.0 mi ESE 12.7 mph 23.0 mph N/A   Clear
1:35 PM 39.2 °F 32.5 °F 19.4 °F 45% 29.80 in 10.0 mi ESE 10.4 mph 23.0 mph N/A   Clear
1:55 PM 39.2 °F 32.5 °F 19.4 °F 45% 29.79 in 10.0 mi ESE 10.4 mph 19.6 mph N/A   Clear
2:15 PM 39.2 °F 32.5 °F 19.4 °F 45% 29.78 in 10.0 mi ESE 10.4 mph 19.6 mph N/A   Scattered Clouds
2:35 PM 39.2 °F 31.6 °F 19.4 °F 45% 29.78 in 10.0 mi East 12.7 mph 24.2 mph N/A   Overcast
2:55 PM 39.2 °F 29.6 °F 19.4 °F 45% 29.76 in 10.0 mi East 19.6 mph 27.6 mph N/A   Mostly Cloudy
3:15 PM 39.2 °F 30.5 °F 17.6 °F 42% 29.76 in 10.0 mi East 16.1 mph 25.3 mph N/A   Scattered Clouds
3:35 PM 37.4 °F 28.9 °F 17.6 °F 45% 29.74 in 10.0 mi ESE 13.8 mph 27.6 mph N/A   Mostly Cloudy
3:55 PM 37.4 °F 29.3 °F 17.6 °F 45% 29.73 in 10.0 mi ESE 12.7 mph 20.7 mph N/A   Overcast
4:15 PM 35.6 °F 28.6 °F 19.4 °F 52% 29.72 in 9.0 mi East 9.2 mph 31.1 mph N/A   Overcast
4:35 PM 33.8 °F 24.8 °F 21.2 °F 60% 29.71 in 10.0 mi East 12.7 mph 25.3 mph N/A   Overcast
4:55 PM 33.8 °F 24.8 °F 23.0 °F 65% 29.71 in 5.0 mi East 12.7 mph 23.0 mph N/A   Overcast
5:15 PM 32.0 °F 23.0 °F 24.8 °F 75% 29.70 in 1.8 mi East 11.5 mph 21.9 mph N/A   Overcast
5:35 PM 30.2 °F 21.3 °F 26.6 °F 86% 29.70 in 1.0 mi ENE 10.4 mph 20.7 mph N/A   Overcast
5:55 PM 30.2 °F 23.4 °F 26.6 °F 86% 29.69 in 0.5 mi East 6.9 mph - N/A   Overcast
6:15 PM 30.2 °F 20.8 °F 26.6 °F 86% 29.70 in 0.8 mi East 11.5 mph 21.9 mph N/A   Overcast
6:35 PM 30.2 °F 25.4 °F 26.6 °F 86% 29.71 in 0.5 mi East 4.6 mph - N/A   Overcast
6:55 PM 30.2 °F 22.6 °F 26.6 °F 86% 29.71 in 0.5 mi East 8.1 mph - N/A   Overcast
7:15 PM 30.2 °F 22.6 °F 26.6 °F 86% 29.69 in 0.5 mi East 8.1 mph 17.3 mph 0.01 in   Overcast
7:35 PM 30.2 °F 20.8 °F 26.6 °F 86% 29.68 in 0.2 mi East 11.5 mph 17.3 mph 0.02 in   Overcast
7:55 PM 28.4 °F 18.5 °F 26.6 °F 93% 29.66 in 0.5 mi East 11.5 mph 27.6 mph 0.02 in   Overcast
8:15 PM 30.2 °F 21.9 °F 26.6 °F 86% 29.65 in 0.8 mi East 9.2 mph 24.2 mph 0.01 in   Overcast
8:35 PM 28.4 °F 18.0 °F 26.6 °F 93% 29.65 in 1.0 mi East 12.7 mph 19.6 mph 0.01 in   Overcast
8:55 PM 28.4 °F 18.0 °F 26.6 °F 93% 29.65 in 1.2 mi East 12.7 mph 24.2 mph 0.01 in   Overcast
9:15 PM 28.4 °F 18.0 °F 26.6 °F 93% 29.65 in 1.5 mi ENE 12.7 mph 19.6 mph N/A   Overcast
9:35 PM 28.4 °F 20.4 °F 26.6 °F 93% 29.64 in 0.8 mi ENE 8.1 mph 16.1 mph N/A   Overcast
9:55 PM 28.4 °F 20.4 °F 26.6 °F 93% 29.62 in 1.0 mi ENE 8.1 mph 18.4 mph 0.01 in   Overcast
10:15 PM 28.4 °F 19.7 °F 26.6 °F 93% 29.61 in 1.0 mi ENE 9.2 mph 21.9 mph N/A   Overcast
10:35 PM 28.4 °F 19.1 °F 26.6 °F 93% 29.60 in 0.8 mi East 10.4 mph 19.6 mph 0.01 in   Overcast
10:55 PM 28.4 °F 20.4 °F 26.6 °F 93% 29.60 in 0.8 mi East 8.1 mph 19.6 mph 0.02 in   Overcast
11:15 PM 28.4 °F 19.1 °F 26.6 °F 93% 29.60 in 1.8 mi East 10.4 mph 18.4 mph 0.02 in   Overcast
11:35 PM 30.2 °F 21.3 °F 26.6 °F 86% 29.57 in 2.5 mi East 10.4 mph 18.4 mph 0.02 in   Overcast
11:55 PM 30.2 °F 20.2 °F 26.6 °F 86% 29.56 in 3.0 mi East 12.7 mph 19.6 mph 0.02 in   Overcast